EHI
0 0 0 0 0 0 0 0 0 1 5 13 17 18 23 29 37 46 58 71 81 88 93 94 93 90 86 84 84 84 82 79 76 70 65 60 55 50 42 31 27 29 27 22
0 0 0 0 0 0 0 0 0 2 7 13 17 22 27 32 38 47 57 68 80 90 95 96 95 91 87 86 86 85 82 80 77 73 69 64 57 51 44 37 33 33 28 21
0 0 0 0 0 0 0 1 1 4 11 17 23 30 39 44 47 53 60 69 80 89 94 96 95 90 86 85 84 82 80 79 78 76 73 68 61 54 49 42 38 35 28 22
0 0 0 0 1 1 1 3 6 10 17 24 30 39 50 57 59 62 69 75 80 85 90 93 93 89 84 82 82 81 80 80 80 78 75 70 65 59 52 45 39 34 29 24
0 0 0 1 1 2 3 7 13 21 26 29 33 40 52 61 65 70 75 78 79 82 85 89 91 90 86 83 84 84 82 82 82 81 76 72 68 60 52 46 41 35 30 28
0 0 1 2 2 2 6 14 24 32 35 37 41 46 53 60 67 73 75 75 76 78 81 85 88 89 87 86 86 85 83 83 83 80 75 71 66 59 52 47 42 37 32 30
0 0 3 6 7 9 19 33 42 44 46 51 56 58 58 61 66 71 74 73 74 76 78 79 82 85 86 86 84 82 81 82 79 73 68 66 63 58 53 47 42 38 34 32
4 7 13 20 23 30 43 54 57 55 54 58 61 60 60 62 63 66 69 70 70 72 73 72 73 77 80 81 78 75 75 75 72 66 61 59 60 58 54 48 41 36 32 29
15 20 27 33 38 47 56 61 59 55 53 53 54 56 58 61 61 61 62 64 65 66 66 66 66 67 69 71 69 66 66 68 66 62 57 56 56 54 49 44 36 31 27 24
26 30 33 35 37 43 49 52 50 48 46 46 49 54 57 58 57 56 57 59 60 60 60 60 60 60 60 61 61 59 60 62 62 59 55 52 48 43 38 33 28 25 23 22
29 29 31 31 29 31 35 38 40 41 40 41 45 49 52 54 53 51 53 55 55 54 53 53 55 57 56 56 56 54 54 55 55 53 48 42 36 29 23 20 18 17 17 18
24 24 26 26 24 23 24 27 32 34 34 36 39 42 45 47 47 46 47 47 46 45 44 45 48 50 50 50 49 49 48 46 45 44 40 34 28 22 14 10 8 7 7 8
19 19 19 18 16 16 18 21 25 27 27 28 29 32 35 37 39 39 39 37 35 35 35 35 38 39 40 42 43 43 41 36 34 33 31 27 24 20 14 8 4 2 1 1
14 12 11 10 9 10 12 14 16 17 17 16 17 19 22 26 28 29 30 27 25 25 25 25 27 29 31 33 35 35 33 28 25 24 22 20 20 19 15 11 8 6 3 1
6 6 6 5 5 5 7 8 9 9 8 6 7 10 12 15 17 19 20 18 16 15 16 16 16 20 24 25 25 26 24 19 16 15 14 14 15 15 13 11 9 7 4 2
1 2 2 3 2 2 2 3 4 4 4 3 4 6 8 9 11 12 12 12 12 11 11 10 10 12 15 17 17 16 13 9 7 7 8 8 9 9 9 8 6 4 2 2
0 1 1 1 0 0 0 1 1 3 3 3 3 5 6 7 8 8 9 10 11 11 9 8 7 7 8 9 10 7 4 2 1 2 3 4 5 6 6 6 4 2 1 1
0 0 0 0 0 0 0 0 1 2 3 3 3 4 5 6 6 6 9 10 11 10 9 7 5 4 4 4 4 2 0 0 0 1 2 3 4 4 4 4 3 2 1 0
0 0 0 0 0 0 0 0 0 1 2 3 4 5 5 5 4 5 8 10 10 10 8 6 4 3 3 2 1 0 0 0 0 0 1 1 2 3 3 2 2 1 0 0
0 0 0 0 0 0 0 0 1 2 3 4 5 7 6 4 2 4 7 9 9 10 8 6 4 3 3 2 0 0 0 0 0 0 0 0 0 1 1 1 1 0 0 0
0 0 0 0 0 0 0 0 1 2 3 3 4 6 6 4 3 5 7 8 7 8 7 5 3 3 2 1 0 0 0 0 0 0 0 0 0 0 0 0 0 0 0 0
0 0 0 0 1 0 0 0 0 1 1 1 3 5 7 6 5 5 6 7 6 6 5 4 2 1 1 1 1 0 0 0 0 0 0 0 0 0 0 0 0 0 0 0
0 0 0 0 1 1 1 1 0 0 1 1 3 6 7 7 6 5 5 6 5 3 3 2 1 0 0 1 1 1 0 0 0 0 0 0 0 0 0 0 0 0 0 0
0 0 0 0 0 1 1 1 0 0 0 1 2 4 5 5 4 3 3 3 2 1 1 1 0 0 0 1 1 1 0 0 0 0 0 0 0 0 0 0 0 0 0 0
0 0 0 0 0 1 1 0 0 0 0 0 1 1 1 1 1 1 1 1 0 0 0 0 0 0 0 0 0 0 0 0 0 0 0 0 0 0 0 0 0 0 0 0
0 0 0 0 0 0 0 0 0 0 0 0 0 0 0 0 0 0 0 0 0 0 0 0 0 0 0 0 0 0 0 0 0 0 0 0 0 0 0 0 0 0 0 0
0 0 0 0 0 0 0 0 0 0 0 0 0 0 0 0 0 0 0 0 0 0 0 0 0 0 0 0 0 0 0 0 0 0 0 0 0 0 0 0 0 0 0 0
Wind_Speed
17 18 16 13 14 16 16 14 13 10 7 5 2 2 4 5 4 4 5 7 8 7 6 6 7 7 7 7 8 7 7 7 7 6 5 5 4 4 4 3 3 3 2 2
16 18 18 16 15 15 15 14 14 13 9 4 4 4 3 3 4 4 4 5 7 7 7 7 6 6 6 6 6 6 7 7 7 6 6 5 5 5 4 3 3 3 2 2
14 16 17 19 15 16 14 13 13 11 6 3 3 4 4 3 3 3 2 3 5 6 6 6 6 5 6 5 6 6 6 6 7 7 6 6 6 5 5 4 3 3 3 3
12 14 19 14 13 14 13 11 10 6 2 2 4 6 6 4 3 3 2 1 3 4 5 5 6 6 5 6 6 6 6 6 6 6 6 6 5 5 4 3 3 2 3 3
11 15 17 15 12 13 11 8 7 3 3 3 5 7 6 5 3 3 3 2 1 2 4 4 4 5 6 6 6 6 6 5 6 6 6 6 5 5 4 4 3 3 3 3
12 15 16 10 9 10 9 7 3 1 1 2 3 2 4 4 4 5 5 4 2 2 3 3 2 3 5 6 6 5 5 5 5 5 6 6 5 5 4 4 3 3 3 3
16 16 12 7 8 9 8 2 3 2 2 3 5 5 6 6 7 6 5 4 4 4 4 3 3 3 4 4 4 4 4 3 4 5 5 4 4 4 4 4 4 3 3 3
14 16 10 6 5 3 3 4 5 6 6 7 8 7 7 7 7 6 6 6 6 5 5 4 3 3 3 3 3 3 3 3 3 3 3 4 4 4 4 4 4 4 4 3
4 4 3 5 6 5 5 6 7 6 7 6 6 6 7 7 7 7 6 6 5 5 5 4 3 3 2 2 2 3 3 3 3 3 2 3 4 4 4 3 4 4 4 3
2 1 2 3 4 6 6 6 7 7 7 6 6 6 6 6 6 5 6 5 5 4 4 4 3 3 2 2 2 2 3 3 3 3 3 3 3 3 3 3 3 3 3 3
2 1 4 3 3 5 5 5 6 6 6 6 6 5 5 5 4 4 4 4 4 3 3 3 3 2 2 2 2 2 2 2 3 4 4 3 3 2 1 1 0 1 2 2
3 3 3 2 4 3 3 4 4 5 5 5 5 5 4 4 3 3 3 3 3 4 4 3 3 3 3 3 2 2 1 2 1 2 3 3 4 3 6 4 4 5 3 3
5 3 3 2 3 5 4 4 4 4 5 5 4 4 3 2 2 2 3 3 3 3 3 2 2 2 2 2 1 1 1 1 1 1 2 3 3 3 3 2 3 4 4 4
6 5 5 3 3 4 4 4 4 3 4 4 3 3 3 2 2 2 2 2 3 3 2 3 2 2 2 1 1 1 0 1 1 2 2 2 2 2 3 3 3 2 2 3
4 5 5 4 4 4 3 3 3 3 2 2 2 2 2 2 2 2 2 2 2 2 3 3 3 2 1 1 1 1 0 0 0 0 1 1 1 2 2 3 3 3 3 3
5 5 4 4 5 5 5 4 4 3 3 2 2 2 2 2 2 2 2 2 2 2 3 3 2 3 2 1 1 1 1 1 1 1 1 1 1 2 2 2 2 2 2 3
4 5 5 5 5 6 5 5 4 4 3 2 2 2 1 1 1 2 2 2 2 2 2 2 2 2 2 2 1 1 0 1 1 1 1 1 1 1 1 1 1 1 1 2
4 5 5 5 5 5 6 5 4 4 4 3 3 2 1 2 2 1 2 2 1 1 1 1 1 1 0 0 1 0 0 0 0 0 0 1 0 0 1 1 1 2 2 2
5 5 5 5 5 5 5 5 5 4 3 3 3 2 1 2 2 2 2 2 1 0 1 2 1 1 0 2 1 0 1 0 0 0 0 0 1 1 1 1 1 1 2 2
6 4 4 5 5 4 4 5 5 4 3 2 2 1 1 1 1 2 2 2 2 2 2 2 1 1 1 1 1 1 1 1 1 1 1 1 0 0 1 1 1 1 2 2
6 5 5 4 4 4 4 4 4 3 2 1 1 0 0 1 1 1 1 1 2 3 2 2 1 2 2 2 1 1 1 1 1 1 1 1 1 1 1 2 2 2 2 2
6 5 5 5 4 4 4 3 2 3 2 2 2 1 1 1 1 2 3 2 3 3 2 2 2 3 3 3 1 0 1 1 1 1 1 2 2 2 2 2 2 2 2 2
5 5 4 4 4 3 2 2 2 2 3 3 3 3 3 3 2 2 2 3 3 4 3 3 4 5 3 1 1 2 3 3 3 3 3 3 3 3 3 3 3 3 2 3
4 3 2 2 1 1 2 2 3 3 4 4 3 3 3 3 3 3 4 5 6 5 4 5 6 6 4 2 3 4 5 5 4 4 4 4 4 4 3 3 3 3 3 4
2 2 2 1 1 1 2 2 3 3 4 3 4 4 3 3 3 4 4 5 5 4 4 5 6 5 4 4 5 6 6 6 6 5 5 5 5 5 5 4 4 4 4 5
2 2 2 2 2 2 2 2 2 2 3 3 3 3 3 3 4 4 4 4 5 5 4 4 4 4 4 5 6 6 6 6 6 6 6 6 6 6 5 5 6 5 5 5
3 2 2 2 2 2 3 3 3 3 2 3 3 3 4 4 4 4 5 4 4 5 5 5 5 5 5 6 6 6 6 6 6 6 5 5 5 5 5 6 5 5 5 6
Wind_Direction
266 271 266 252 243 236 236 244 255 259 241 188 161 150 123 127 132 144 150 144 142 155 150 148 149 157 166 168 167 168 168 172 172 174 171 172 176 168 165 179 183 167 176 174
264 264 267 261 255 251 245 243 248 251 254 181 160 135 120 119 145 143 142 152 154 153 153 155 157 165 169 167 163 161 167 173 168 170 170 170 169 162 165 173 168 164 165 141
265 261 263 257 251 253 252 249 250 252 247 186 154 126 111 99 97 109 136 150 153 158 161 162 166 167 169 164 163 166 169 171 169 171 169 166 172 167 168 169 165 156 148 131
264 265 255 256 262 261 258 256 254 245 192 149 109 96 83 66 60 87 90 113 152 165 164 167 172 174 171 169 167 169 172 173 170 169 168 165 166 162 158 157 160 156 152 145
257 254 253 258 263 268 258 256 268 249 190 148 110 108 90 65 50 52 62 56 87 152 159 158 167 171 165 166 162 167 173 175 169 169 167 166 169 162 155 156 158 164 153 146
249 255 254 252 269 277 265 244 283 8 90 119 136 164 105 78 59 45 40 43 58 85 107 120 131 149 159 163 163 173 176 173 166 164 169 171 167 162 158 159 164 158 148 144
240 251 258 284 291 283 255 265 28 54 55 63 56 63 77 69 64 57 54 42 60 72 73 73 89 117 138 147 157 157 151 154 161 164 169 162 159 159 155 162 162 157 153 152
234 245 248 345 320 325 36 42 48 62 58 61 70 76 79 71 62 54 48 49 53 60 64 57 65 89 116 123 123 129 137 134 138 154 172 162 154 156 163 166 166 169 171 172
256 264 40 25 42 34 46 56 54 63 67 68 69 71 69 63 58 52 46 46 49 57 64 57 59 73 103 110 118 135 148 149 151 151 149 142 150 159 167 174 186 187 184 184
285 296 23 30 48 36 38 53 61 53 52 51 53 61 62 57 55 53 46 43 50 53 55 52 48 49 69 89 112 137 151 153 157 155 140 132 140 158 166 184 204 200 189 184
283 332 6 6 38 55 37 47 61 63 56 50 54 55 56 61 57 55 50 39 40 48 51 44 38 41 45 69 103 120 139 150 163 158 142 134 123 83 135 104 76 211 205 183
298 331 319 357 357 32 43 39 44 51 53 50 46 44 47 56 54 52 55 46 38 31 34 30 27 32 34 43 68 100 131 149 169 159 151 151 145 118 61 77 71 67 67 88
316 329 334 347 354 6 19 17 34 47 45 41 37 40 36 43 53 40 50 42 38 31 31 25 21 27 34 65 79 96 144 163 183 164 147 149 156 161 153 112 77 66 75 95
340 340 319 332 1 2 2 8 12 25 29 22 15 28 27 29 32 25 30 27 17 6 16 25 18 16 21 64 91 97 127 164 184 183 169 163 166 173 172 171 162 147 134 152
320 314 312 326 343 335 331 335 323 324 347 4 2 9 12 28 25 6 8 21 18 351 3 25 18 8 15 37 86 89 129 151 183 162 173 174 172 179 185 179 165 153 146 156
301 298 304 316 316 307 309 304 299 306 326 331 345 353 8 24 19 357 352 359 358 355 19 26 2 345 1 16 92 126 138 154 193 192 189 198 187 191 189 171 161 163 166 155
288 296 303 303 302 301 295 292 290 297 300 301 307 311 339 335 336 346 337 347 31 37 31 18 0 360 15 24 15 20 42 117 173 196 205 213 194 183 169 163 168 170 152 135
309 302 299 299 299 304 312 316 312 313 305 301 303 291 306 318 320 316 318 327 340 59 63 56 28 8 1 41 39 69 78 323 322 323 71 92 92 119 131 149 160 155 149 141
290 282 290 291 290 299 303 305 301 302 311 307 304 308 325 334 332 318 306 305 315 50 48 64 24 341 25 64 16 197 158 138 121 91 52 118 195 221 209 181 165 152 139 132
300 289 282 283 287 293 306 307 305 304 300 303 302 325 353 345 340 337 340 353 23 37 57 52 42 30 26 72 357 266 167 165 159 154 173 213 193 129 109 109 114 115 116 120
317 308 304 302 307 308 308 311 313 315 336 2 337 345 26 339 336 357 40 30 43 40 56 75 46 46 36 8 280 252 189 178 160 136 138 123 98 88 80 77 82 91 93 98
312 315 315 315 315 310 313 329 327 323 348 1 3 23 46 28 49 62 56 53 60 51 58 68 49 35 11 330 287 179 96 111 128 120 112 102 99 97 87 85 84 79 73 72
306 310 311 310 312 318 344 355 356 17 25 32 39 47 48 44 45 57 61 57 69 66 60 51 33 31 18 17 50 69 72 73 71 74 81 86 87 85 81 78 76 74 64 61
306 307 310 306 318 10 40 35 41 54 61 62 61 61 64 71 68 65 68 78 70 75 71 62 56 49 44 51 60 65 66 66 65 66 72 76 80 84 82 78 75 69 68 70
348 3 12 360 25 60 70 75 79 80 81 80 76 70 64 64 77 78 75 79 84 83 89 83 73 66 59 61 63 60 61 59 58 62 66 64 65 68 65 64 60 58 59 60
38 45 53 51 52 57 73 77 76 82 90 92 88 81 79 79 86 93 97 96 93 92 90 92 90 82 72 70 69 69 73 74 70 65 63 66 64 64 62 62 68 66 62 58
57 65 64 59 63 61 69 81 82 77 76 86 92 94 92 87 86 93 97 94 93 92 87 83 79 76 75 74 72 69 71 72 72 73 72 71 71 69 69 66 64 63 61 60